Overview Statistics Trail Chart Weather Telemetry Raw packets
 

This is the latest recevied weather packets stored in our database for station/object SP9MUF-14. If no packets are shown the sender has not sent any weather packets the latest 10 day(s).

<< 22 23 24 25 26 27 28 >>
Time Temp. Humidity Pressure Rain* Wind** Luminosity Snow
1788086380 25.56° C 47% 1015.5 hPa 0 mm - 640 W/m² -
1788086078 25.56° C 47% 1015.7 hPa 0 mm - 643 W/m² -
1788085776 25.56° C 48% 1015.7 hPa 0 mm - 633 W/m² -
1788085476 25.56° C 48% 1015.7 hPa 0 mm - 634 W/m² -
1788085172 25.56° C 50% 1015.8 hPa 0 mm - 625 W/m² -
1788084874 25° C 51% 1015.8 hPa 0 mm - 617 W/m² -
1788084570 25° C 52% 1015.8 hPa 0 mm - 617 W/m² -
1788084266 25° C 51% 1015.9 hPa 0 mm - 615 W/m² -
1788083963 23.89° C 51% 1016 hPa 0 mm - 606 W/m² -
1788083661 25° C 53% 1016 hPa 0 mm - 602 W/m² -
1788082755 23.89° C 54% 1016.1 hPa 0 mm - 593 W/m² -
1788082453 23.89° C 57% 1016.1 hPa 0 mm - 582 W/m² -
1788081848 23.89° C 56% 1016.2 hPa 0 mm - 583 W/m² -
1788081546 23.89° C 56% 1016.3 hPa 0 mm - 578 W/m² -
1788080942 23.89° C 56% 1016.8 hPa 0 mm - 572 W/m² -
1788080640 23.89° C 59% 1016.3 hPa 0 mm - 569 W/m² -
1788080036 22.78° C 60% 1016.4 hPa 0 mm - 430 W/m² -
1788079734 22.78° C 64% 1016.4 hPa 0 mm - 580 W/m² -
1788079432 22.78° C 60% 1016.4 hPa 0 mm - 160 W/m² -
1788079130 22.78° C 61% 1016.5 hPa 0 mm - 536 W/m² -
1788078827 22.78° C 66% 1016.5 hPa 0 mm - 516 W/m² -
1788078525 21.67° C 67% 1016.5 hPa 0 mm - 521 W/m² -
1788078223 21.67° C 67% 1016.6 hPa 0 mm - 495 W/m² -
1788077921 21.67° C 70% 1016.6 hPa 0 mm - 481 W/m² -
1788077621 20.56° C 71% 1016.7 hPa 0 mm - 418 W/m² -

* Rain latest hour (hover to see other rain measurements)
** Current wind speed in m/s (hover to see current wind gust speed)